Kissimmee, FL

5:29 AM EST on December 15, 2019 (GMT -0500)
Kissimmee Municipal

Weather History for KISM - August, 2019

Change the Weather History Date:

Wednesday, August 21, 2019

  Actual Average Record
Temperature  
Mean Temperature 84 °F -  
Max Temperature 93 °F 92 °F 96 °F (1963)
Min Temperature 77 °F 72 °F 68 °F (1981)
Cooling Degree Days 19    
Growing Degree Days 34 (Base 50)    
Moisture  
Dew Point 75 °F    
Average Humidity 77    
Maximum Humidity 96    
Minimum Humidity 54    
Precipitation  
Precipitation 0.00 in - - ()
Sea Level Pressure  
Sea Level Pressure 30.10 in    
Wind  
Wind Speed 5 mph (ESE)    
Max Wind Speed 12 mph    
Max Gust Speed -    
Visibility 10 miles    
Events      
Averages and records for this station are not official NWS values.
T = Trace of Precipitation, MM = Missing Value Source: NWS Daily Summary

Daily Weather History Graph

Daily Weather History Graph

Search for Another Location

Airport or City:

Astronomy

Aug. 21, 2019 Rise Set
Actual Time 6:58 AM EDT 7:58 PM EDT
Civil Twilight 6:34 AM EDT 8:23 PM EDT
Nautical Twilight 6:05 AM EDT 8:52 PM EDT
Astronomical Twilight 5:35 AM EDT 9:21 PM EDT
Moon 11:44 PM EDT (8/21) 12:06 PM EDT (8/21)
Length of Visible Light 13h 49m
Length of Day
13h 00m
Waning Gibbous, 69% of the Moon is Illuminated
Aug 21
Waning Gibbous
Aug 23
Last Quarter
Aug 30
New
Sep 5
First Quarter
Sep 14
Full

Hourly Weather History & Observations

Time (EDT) Temp. Heat Index Dew Point Humidity Pressure Visibility Wind Dir Wind Speed Gust Speed Precip Events Conditions
1:56 AM 79.0 °F - 75.9 °F 90% 30.11 in 10.0 mi ESE 5.8 mph - N/A   Clear
2:56 AM 78.1 °F - 75.9 °F 93% 30.09 in 10.0 mi Calm Calm - N/A   Clear
3:56 AM 78.1 °F - 75.9 °F 93% 30.09 in 10.0 mi Calm Calm - N/A   Clear
4:56 AM 78.1 °F - 75.9 °F 93% 30.09 in 10.0 mi Calm Calm - N/A   Clear
5:56 AM 78.1 °F - 75.9 °F 93% 30.09 in 10.0 mi NE 3.5 mph - N/A   Clear
6:56 AM 77.0 °F - 75.9 °F 96% 30.11 in 10.0 mi Calm Calm - N/A   Clear
7:56 AM 79.0 °F - 77.0 °F 94% 30.12 in 10.0 mi ENE 3.5 mph - N/A   Partly Cloudy
8:37 AM 80.6 °F 87.1 °F 77.0 °F 89% 30.13 in 10.0 mi East 4.6 mph - N/A   Scattered Clouds
8:56 AM 82.0 °F 91.0 °F 78.1 °F 88% 30.13 in 10.0 mi ESE 4.6 mph - N/A   Scattered Clouds
9:56 AM 84.0 °F 92.6 °F 75.9 °F 76% 30.14 in 10.0 mi East 4.6 mph - N/A   Scattered Clouds
10:05 AM 84.2 °F 92.3 °F 75.2 °F 74% 30.13 in 10.0 mi ENE 5.8 mph - N/A   Mostly Cloudy
10:24 AM 86.0 °F 95.1 °F 75.2 °F 70% 30.14 in 10.0 mi ESE 6.9 mph - N/A   Scattered Clouds
10:37 AM 86.0 °F 95.1 °F 75.2 °F 70% 30.14 in 10.0 mi East 5.8 mph - N/A   Mostly Cloudy
10:46 AM 87.8 °F 97.6 °F 75.2 °F 66% 30.14 in 10.0 mi East 8.1 mph - N/A   Scattered Clouds
11:56 AM 88.0 °F 96.5 °F 73.9 °F 63% 30.13 in 10.0 mi Variable 5.8 mph - N/A   Scattered Clouds
12:56 PM 87.1 °F 95.4 °F 73.9 °F 65% 30.12 in 10.0 mi ESE 8.1 mph - N/A   Scattered Clouds
1:56 PM 90.0 °F 97.9 °F 73.0 °F 57% 30.10 in 10.0 mi Variable 4.6 mph - N/A   Partly Cloudy
2:56 PM 91.9 °F 100.7 °F 73.0 °F 54% 30.07 in 10.0 mi ESE 8.1 mph - N/A   Partly Cloudy
3:56 PM 91.9 °F 100.7 °F 73.0 °F 54% 30.06 in 10.0 mi ESE 11.5 mph - N/A   Mostly Cloudy
4:56 PM 89.1 °F 100.2 °F 75.9 °F 65% 30.05 in 10.0 mi South 9.2 mph - N/A   Partly Cloudy
5:56 PM 88.0 °F 98.5 °F 75.9 °F 67% 30.05 in 10.0 mi South 6.9 mph - N/A   Clear
6:56 PM 87.1 °F 96.3 °F 75.0 °F 67% 30.06 in 10.0 mi ESE 9.2 mph - N/A   Mostly Cloudy
7:56 PM 84.9 °F 91.4 °F 73.0 °F 67% 30.07 in 10.0 mi ESE 11.5 mph - N/A   Clear
8:56 PM 84.0 °F 91.2 °F 73.9 °F 72% 30.09 in 10.0 mi ESE 8.1 mph - N/A   Clear
9:56 PM 82.0 °F 88.6 °F 75.0 °F 79% 30.09 in 10.0 mi ESE 5.8 mph - N/A   Clear
10:56 PM 81.0 °F 87.3 °F 75.9 °F 85% 30.11 in 10.0 mi ESE 6.9 mph - N/A   Clear
11:56 PM 80.1 °F 85.4 °F 75.9 °F 87% 30.10 in 10.0 mi Calm Calm - N/A   Clear